Location: Mountain Grove
(34.0887°N, 86.6172°W)
Time: 15:11:54
(UTC+00:00)

ATLAS CENTAUR R/B - Pass Details

Date: 14 July 2020
Orbit: 475 x 672 km, 64.7° (Epoch: 13 July)

Event Time Altitude Azimuth Distance (km) Brightness Sun altitude
Rises 03:02:22 0° 311° (NW) 2,525 6.2 -21.2°
Reaches altitude 10° 03:05:03 10° 290° (WNW) 1,642 4.6 -21.5°
Maximum altitude 03:07:25 17° 249° (WSW) 1,290 3.4 -21.9°
Enters shadow 03:08:23 15° 230° (SW) 1,357 3.3 -22.0°
